Tracking 31027 objects as of 19-Jul-2025
HD Live streaming from Space Station
objects crossing your sky now

STARLINK-4341

Track STARLINK-4341 now!
10-day predictions
STARLINK-4341 is classified as:


NORAD ID: 53052
Int'l Code: 2022-077K
Perigee: 569.0 km
Apogee: 571.2 km
Inclination: 97.7 °
Period: 95.9 minutes
Semi major axis: 6941 km
RCS: Unknown
Launch date: July 11, 2022
Source: United States (US)
Launch site: AIR FORCE WESTERN TEST RANGE (AFWTR)
Your satellite tracking list
FENGYUN 1C DEB
Track 1 satellite(s)




NASA's NSSDC Master Catalog

Two Line Element Set (TLE):
1 53052U 22077K   25199.74850397  .00000038  00000-0  75449-5 0  9997
2 53052  97.6559  20.8975 0001550 156.2787 203.8509 15.01276141166396
Source of the keplerian elements: AFSPC